Location: B�rgermoos
(47.6500°N, 9.0667°E)
Time: 12:48:31
(UTC+00:00)

Tiros 1 - All Passes

Search period start: 04 August 2021 00:00
Search period end: 14 August 2021 00:00
Orbit: 630 x 664 km, 48.4° (Epoch: 03 August)

Date Brightness Start Highest point End Pass type
(mag) Time Alt. Az. Time Alt. Az. Time Alt. Az.
04 Aug - 15:59:49 10° SSW 16:04:06 33° SSE 16:08:23 10° E daylight
04 Aug - 17:41:11 10° WSW 17:46:00 83° SSE 17:50:46 10° ENE daylight
04 Aug - 19:23:31 10° W 19:28:18 83° N 19:33:03 10° E visible
04 Aug - 21:05:48 10° WNW 21:10:27 54° SSW 21:15:01 10° SE visible
04 Aug - 22:49:01 10° W 22:51:55 16° SW 22:54:46 10° S visible
05 Aug - 14:45:15 10° S 14:48:20 17° SE 14:51:24 10° E daylight
05 Aug - 16:25:09 10° SW 16:29:50 55° SSE 16:34:30 10° ENE daylight
05 Aug - 18:07:11 10° W 18:12:00 83° N 18:16:46 10° E daylight
05 Aug - 19:49:31 10° WNW 19:54:18 82° SSW 19:59:02 10° ESE visible
05 Aug - 21:31:57 10° W 21:36:10 32° SW 21:40:19 10° SSE visible
06 Aug - 15:09:38 10° SSW 15:13:52 31° SE 15:18:04 10° E daylight
06 Aug - 16:50:55 10° WSW 16:55:43 80° SSE 17:00:30 10° ENE daylight
06 Aug - 18:33:13 10° W 18:38:02 82° N 18:42:47 10° E daylight
06 Aug - 20:15:31 10° WNW 20:20:12 57° SSW 20:24:48 10° SE visible
06 Aug - 21:58:36 10° W 22:01:42 17° SW 22:04:47 10° S visible
07 Aug - 13:55:15 10° S 13:58:07 16° SE 14:00:58 10° E daylight
07 Aug - 15:34:55 10° SW 15:39:34 52° SSE 15:44:14 10° ENE daylight
07 Aug - 17:16:53 10° W 17:21:43 84° N 17:26:30 10° E daylight
07 Aug - 18:59:14 10° WNW 19:04:01 84° SSW 19:08:46 10° ESE daylight
07 Aug - 20:41:38 10° W 20:45:56 34° SSW 20:50:10 10° SSE visible
08 Aug - 14:19:29 10° SSW 14:23:37 29° SE 14:27:46 10° E daylight
08 Aug - 16:00:38 10° WSW 16:05:27 78° SSE 16:10:15 10° ENE daylight
08 Aug - 17:42:56 10° W 17:47:45 82° N 17:52:31 10° E daylight
08 Aug - 19:25:14 10° WNW 19:29:56 60° SSW 19:34:35 10° SE visible
08 Aug - 21:08:11 10° W 21:11:30 19° SW 21:14:46 10° S visible
09 Aug - 13:05:17 10° S 13:07:54 15° SE 13:10:31 10° ESE daylight
09 Aug - 14:44:41 10° SW 14:49:19 50° SSE 14:53:58 10° ENE daylight
09 Aug - 16:26:36 10° W 16:31:26 85° N 16:36:13 10° E daylight
09 Aug - 18:08:56 10° W 18:13:45 87° SSW 18:18:31 10° ESE daylight
09 Aug - 19:51:19 10° W 19:55:42 36° SSW 20:00:01 10° SE visible
10 Aug - 13:29:19 10° SSW 13:33:23 28° SE 13:37:27 10° E daylight
10 Aug - 15:10:22 10° WSW 15:15:11 75° SSE 15:19:58 10° ENE daylight
10 Aug - 16:52:38 10° W 16:57:28 81° N 17:02:15 10° E daylight
10 Aug - 18:34:56 10° WNW 18:39:41 63° SSW 18:44:21 10° ESE daylight
10 Aug - 20:17:47 10° W 20:21:16 20° SW 20:24:43 10° S visible
11 Aug - 12:15:22 10° SSE 12:17:41 13° SE 12:20:01 10° ESE daylight
11 Aug - 13:54:27 10° SW 13:59:04 47° SSE 14:03:41 10° E daylight
11 Aug - 15:36:19 10° W 15:41:08 86° NNW 15:45:57 10° E daylight
11 Aug - 17:18:39 10° W 17:23:29 89° SSW 17:28:16 10° ESE daylight
11 Aug - 19:01:01 10° W 19:05:27 39° SSW 19:09:50 10° SE daylight
12 Aug - 12:39:11 10° SSW 12:43:09 26° SE 12:47:07 10° E daylight
12 Aug - 14:20:06 10° WSW 14:24:54 73° SSE 14:29:42 10° ENE daylight
12 Aug - 16:02:20 10° W 16:07:11 81° N 16:11:59 10° E daylight
12 Aug - 17:44:39 10° WNW 17:49:25 66° SSW 17:54:08 10° ESE daylight
12 Aug - 19:27:25 10° W 19:31:03 22° SW 19:34:40 10° S visible
13 Aug - 11:25:30 10° SSE 11:27:28 12° SE 11:29:27 10° ESE daylight
13 Aug - 13:04:14 10° SW 13:08:49 45° SSE 13:13:23 10° E daylight
13 Aug - 14:46:01 10° W 14:50:52 87° N 14:55:41 10° E daylight
13 Aug - 16:28:22 10° W 16:33:12 90° NE 16:38:00 10° ESE daylight
13 Aug - 18:10:42 10° W 18:15:13 41° SSW 18:19:40 10° SE daylight
13 Aug - 19:55:21 10° WSW 19:56:28 11° SW 19:57:35 10° SW visible
